Weather History for Russellville, AR

Change the Weather History Date:

Tuesday, June 3, 2014

  Actual Average (KHOT) Record (KHOT)
Temperature  
Mean Temperature 79 °F -  
Max Temperature 90 °F 85 °F 96 °F (2011)
Min Temperature 68 °F 62 °F 50 °F (1969)
Cooling Degree Days 14    
Growing Degree Days 29 (Base 50)    
Moisture  
Dew Point 70 °F    
Average Humidity 81    
Maximum Humidity 100    
Minimum Humidity 54    
Precipitation  
Precipitation 0.00 in - - ()
Sea Level Pressure  
Sea Level Pressure 29.99 in    
Wind  
Wind Speed 1 mph (WSW)    
Max Wind Speed 5 mph    
Max Gust Speed -    
Visibility 8 miles    
Events Fog    
Averages and records for this station are not official NWS values.
T = Trace of Precipitation, MM = Missing Value Source: NWS Daily Summary

Daily Weather History Graph

Daily Weather History Graph

Search for Another Location

Airport:

Trip Planner

Search our weather history database for the weather conditions in past years. The results will help you decide how hot, cold, wet, or windy it might be!

Date:

Astronomy

Jun. 03, 2014 Rise Set
Actual Time 5:58 AM CDT 8:23 PM CDT
Civil Twilight 5:28 AM CDT 8:52 PM CDT
Nautical Twilight 4:52 AM CDT 9:28 PM CDT
Astronomical Twilight 4:13 AM CDT 10:08 PM CDT
Moon 11:14 AM CDT (6/3) No Moon Set
Length of Visible Light 15h 23m
Length of Day
14h 24m
Waxing Crescent, 30% of the Moon is Illuminated
Jun 3
Waxing Crescent
Jun 5
First Quarter
Jun 12
Full
Jun 19
Last Quarter
Jun 27
New

Hourly Weather History & Observations

Time (CDT) Temp. Heat Index Dew Point Humidity Pressure Visibility Wind Dir Wind Speed Gust Speed Precip Events Conditions
12:53 AM 73.0 °F - 71.1 °F 93% 30.01 in 7.0 mi Calm Calm - N/A   Clear
1:53 AM 73.0 °F - 71.1 °F 93% 30.01 in 8.0 mi Calm Calm - N/A   Clear
2:53 AM 72.0 °F - 70.0 °F 93% 30.01 in 6.0 mi Calm Calm - N/A   Scattered Clouds
3:53 AM 70.0 °F - 68.0 °F 93% 30.01 in 6.0 mi Calm Calm - N/A   Clear
4:17 AM 69.8 °F - 69.8 °F 100% 30.03 in 4.0 mi Calm Calm - N/A   Scattered Clouds
4:26 AM 71.6 °F - 68.0 °F 88% 30.02 in 5.0 mi Calm Calm - N/A   Mostly Cloudy
4:37 AM 69.8 °F - 68.0 °F 94% 30.02 in 7.0 mi Calm Calm - N/A   Scattered Clouds
4:53 AM 70.0 °F - 68.0 °F 93% 30.01 in 7.0 mi Calm Calm - N/A   Clear
5:53 AM 69.1 °F - 66.9 °F 93% 30.02 in 6.0 mi Calm Calm - N/A   Scattered Clouds
5:59 AM 68.0 °F - 66.2 °F 94% 30.04 in 2.0 mi Calm Calm - N/A   Mostly Cloudy
6:02 AM 69.8 °F - 66.2 °F 88% 30.04 in 0.8 mi Calm Calm - N/A   Mist
6:53 AM 70.0 °F - 69.1 °F 97% 30.03 in 0.2 mi Calm Calm - N/A Fog Fog
7:29 AM 71.6 °F - 71.6 °F 100% 30.05 in 2.0 mi Calm Calm - N/A   Overcast
7:37 AM 71.6 °F - 71.6 °F 100% 30.05 in 4.0 mi Calm Calm - N/A   Overcast
7:53 AM 73.0 °F - 71.1 °F 93% 30.04 in 10.0 mi Calm Calm - N/A   Scattered Clouds
8:48 AM 75.2 °F - 71.6 °F 89% 30.06 in 10.0 mi Calm Calm - N/A   Mostly Cloudy
8:53 AM 77.0 °F - 72.0 °F 84% 30.04 in 10.0 mi Variable 3.5 mph - N/A   Mostly Cloudy
9:12 AM 77.0 °F - 71.6 °F 83% 30.06 in 10.0 mi Calm Calm - N/A   Scattered Clouds
9:53 AM 80.1 °F 84.2 °F 73.0 °F 79% 30.03 in 10.0 mi Calm Calm - N/A   Clear
10:53 AM 82.9 °F 88.8 °F 73.0 °F 72% 30.03 in 10.0 mi Variable 3.5 mph - N/A   Clear
11:53 AM 87.1 °F 94.5 °F 73.0 °F 63% 30.02 in 10.0 mi Calm Calm - N/A   Partly Cloudy
12:53 PM 88.0 °F 92.9 °F 70.0 °F 55% 30.00 in 10.0 mi WSW 4.6 mph - N/A   Partly Cloudy
1:53 PM 90.0 °F 96.9 °F 72.0 °F 55% 29.98 in 10.0 mi Variable 4.6 mph - N/A   Partly Cloudy
2:53 PM 90.0 °F 96.4 °F 71.1 °F 54% 29.95 in 10.0 mi Variable 4.6 mph - N/A   Partly Cloudy
3:53 PM 89.1 °F 96.0 °F 72.0 °F 57% 29.94 in 10.0 mi Variable 3.5 mph - N/A   Partly Cloudy
4:53 PM 89.1 °F 95.0 °F 71.1 °F 55% 29.92 in 10.0 mi Variable 4.6 mph - N/A   Clear
5:53 PM 89.1 °F 95.0 °F 71.1 °F 55% 29.90 in 10.0 mi Calm Calm - N/A   Clear
6:53 PM 88.0 °F 93.8 °F 71.1 °F 57% 29.89 in 10.0 mi Calm Calm - N/A   Clear
7:53 PM 84.0 °F 89.6 °F 72.0 °F 67% 29.88 in 10.0 mi Calm Calm - N/A   Clear
8:53 PM 79.0 °F - 72.0 °F 79% 29.88 in 10.0 mi Calm Calm - N/A   Clear
10:53 PM 75.9 °F - 71.1 °F 85% 29.87 in 10.0 mi Calm Calm - N/A   Clear